Home   Weather   Worcester   Past weeks

Flag for USA Past Weather in Worcester, Massachusetts, USA — Yesterday and Last 2 Weeks

Now
82 °F

Sunny.


Feels Like: 83 °F
Forecast: 69 / 90 °F
Wind: 10 mph from West

Location: Worcester Regional Airport

Current Time: Jul 20, 2017 at 12:53:15 pm

Latest Report: Jul 20, 2017 at 11:54 am


Visibility: 10 mi

Pressure: 29.97 "Hg

Humidity: 55%

Dew Point: 64 °F

Location of WorcesterLocation

Past Weather in Worcester — Graph

°F

Worcester Temperature Yesterday

Maximum temperature yesterday: 86 °F (at 2:54 pm)
Minimum temperature yesterday: 68 °F (at 4:54 am)
Average temperature yesterday: 76 °F

High & Low Weather Summary for the Past Weeks

 TemperatureHumidityPressure
High86 °F (Jul 19, 2:54 pm)97% (Jul 7, 7:06 pm)30.25 "Hg (Jul 7, 7:06 pm)
Low54 °F (Jul 13, 10:01 pm)29% (Jul 5, 4:54 pm)29.70 "Hg (Jul 8, 1:54 pm)
Average68 °F77%29.99 "Hg
* Reported Jul 5 10:54 am — Jul 20 10:54 am, Worcester. Weather by CustomWeather, © 2017

Note: Actual official high and low records may vary slightly from our data, if they occured in-between our weather recording intervals... More about our weather records

Advertising

Worcester Weather History for the Previous 24 Hours

Scroll right to see more
 ConditionsComfort  
Time TempWeatherWind HumidityBarometerVisibility
10:54 am
Thu, Jul 20
82 °FSunny.9 mph55%29.97 "Hg10 mi
9:54 am80 °FSunny.8 mph58%29.97 "Hg10 mi
8:54 am77 °FSunny.9 mph64%29.98 "Hg10 mi
7:54 am74 °FSunny.9 mph67%29.99 "Hg10 mi
6:54 am72 °FSunny.9 mph68%29.98 "Hg10 mi
5:54 am71 °FSunny.10 mph68%29.97 "Hg10 mi
4:54 am72 °FClear.12 mph64%29.97 "Hg10 mi
3:54 am67 °FClear.6 mph73%29.97 "Hg10 mi
2:54 am70 °FClear.7 mph68%29.98 "Hg10 mi
1:54 am71 °FClear.10 mph63%29.98 "Hg10 mi
12:54 am72 °FClear.9 mph61%29.99 "Hg10 mi
11:54 pm
Wed, Jul 19
73 °FClear.9 mph59%29.99 "Hg10 mi
10:54 pm73 °FClear.9 mph59%30.00 "Hg10 mi
9:54 pm74 °FClear.9 mph60%30.01 "Hg10 mi
8:54 pm74 °FClear.7 mph67%29.98 "Hg10 mi
7:54 pm78 °FSunny.8 mph54%29.97 "Hg10 mi
6:54 pm83 °FSunny.6 mph48%29.96 "Hg10 mi
5:54 pm85 °FSunny.12 mph42%29.95 "Hg10 mi
4:54 pm86 °FSunny.12 mph39%29.96 "Hg10 mi
3:54 pm85 °FScattered clouds.14 mph50%29.97 "Hg10 mi
2:54 pm86 °FPassing clouds.10 mph48%29.97 "Hg10 mi
1:54 pm85 °FPassing clouds.13 mph50%29.99 "Hg10 mi
12:54 pm84 °FPassing clouds.15 mph51%30.00 "Hg10 mi
Weather by CustomWeather, © 2017

See weather overviewHow to use our weather pages